Overview Statistics Trail Chart Weather Telemetry Raw packets
 

This is the latest recevied weather packets stored in our database for station/object G4KVI. If no packets are shown the sender has not sent any weather packets the latest 10 day(s).

<< 10 11 12 13 14 15 16 >>
Time Temp. Humidity Pressure Rain* Wind** Luminosity Snow
1788521104 17.78° C 73% 1017.6 hPa 0 mm - 161 W/m² -
1788520804 17.78° C 75% 1017.6 hPa 0 mm - 188 W/m² -
1788520504 17.78° C 74% 1017.3 hPa 0 mm - 180 W/m² -
1788520204 17.78° C 77% 1017.4 hPa 0 mm - 73 W/m² -
1788519904 17.78° C 76% 1017.1 hPa 0 mm - 69 W/m² -
1788519604 18.33° C 75% 1017.2 hPa 0 mm - 80 W/m² -
1788519304 18.33° C 77% 1017.3 hPa 0 mm - 118 W/m² -
1788519004 18.33° C 77% 1016.9 hPa 0 mm - 194 W/m² -
1788518704 17.78° C 78% 1016.6 hPa 0 mm - 207 W/m² -
1788518404 17.78° C 78% 1016.8 hPa 0 mm - 146 W/m² -
1788518104 17.78° C 77% 1016.9 hPa 0 mm - 132 W/m² -
1788517804 18.33° C 78% 1016.9 hPa 0 mm - 198 W/m² -
1788517504 17.78° C 78% 1016.9 hPa 0 mm - 117 W/m² -
1788517204 17.78° C 78% 1016.8 hPa 0 mm - 174 W/m² -
1788516904 17.78° C 78% 1016.5 hPa 0 mm - 198 W/m² -
1788516604 17.78° C 79% 1016.4 hPa 0 mm - 213 W/m² -
1788516304 17.78° C 80% 1016.5 hPa 0 mm - 190 W/m² -
1788516004 17.78° C 80% 1016.9 hPa 0 mm - 198 W/m² -
1788515704 17.78° C 80% 1016.8 hPa 0 mm - 106 W/m² -
1788515404 17.78° C 80% 1016.6 hPa 0 mm - 96 W/m² -
1788515104 17.22° C 80% 1016.6 hPa 0 mm - 172 W/m² -
1788514804 17.22° C 81% 1016.6 hPa 0 mm - 117 W/m² -
1788514504 17.78° C 82% 1016.6 hPa 0 mm - 70 W/m² -
1788514204 17.78° C 82% 1016.5 hPa 0 mm - 110 W/m² -
1788513904 17.78° C 81% 1016.4 hPa 0 mm - 135 W/m² -

* Rain latest hour (hover to see other rain measurements)
** Current wind speed in m/s (hover to see current wind gust speed)